H1 CPF  2  DGF 2024 10 01 10 275 01 etalon1    NONE      
H2  8900103  525    19751 2024 10 01 00 00 00 2024 10 08 00 00 00   120 1 1  0 0 0 1
H5  0.5673
H9
10 0 60584  43200.000000  0       4571939.390      24860174.449       3042944.495
10 0 60584  43320.000000  0       4596303.621      24903487.613       2616912.573
10 0 60584  43440.000000  0       4620116.075      24939622.796       2189970.138
10 0 60584  43560.000000  0       4643244.548      24968580.355       1762265.681
10 0 60584  43680.000000  0       4665557.067      24990364.928       1333947.981
10 0 60584  43800.000000  0       4686922.001      25004985.419        905166.056
10 0 60584  43920.000000  0       4707208.173      25012454.997        476069.103
10 0 60584  44040.000000  0       4726284.967      25012791.078         46806.453
10 0 60584  44160.000000  0       4744022.441      25006015.317       -382472.488
10 0 60584  44280.000000  0       4760291.436      24992153.582       -811618.286
10 0 60584  44400.000000  0       4774963.683      24971235.940      -1240481.540
10 0 60584  44520.000000  0       4787911.913      24943296.630      -1668912.926
10 0 60584  44640.000000  0       4799009.963      24908374.035      -2096763.257
10 0 60584  44760.000000  0       4808132.884      24866510.653      -2523883.534
10 0 60584  44880.000000  0       4815157.047      24817753.065      -2950124.997
10 0 60584  45000.000000  0       4819960.247      24762151.894      -3375339.179
10 0 60584  45120.000000  0       4822421.806      24699761.772      -3799377.961
10 0 60584  45240.000000  0       4822422.677      24630641.293      -4222093.622
10 0 60584  45360.000000  0       4819845.546      24554852.972      -4643338.892
10 0 60584  45480.000000  0       4814574.931      24472463.193      -5062967.005
10 0 60584  45600.000000  0       4806497.280      24383542.160      -5480831.750
10 0 60584  45720.000000  0       4795501.072      24288163.844      -5896787.528
10 0 60584  45840.000000  0       4781476.906      24186405.927      -6310689.395
10 0 60584  45960.000000  0       4764317.603      24078349.741      -6722393.122
10 0 60584  46080.000000  0       4743918.295      23964080.208      -7131755.241
10 0 60584  46200.000000  0       4720176.514      23843685.773      -7538633.101
10 0 60584  46320.000000  0       4692992.282      23717258.342      -7942884.911
10 0 60584  46440.000000  0       4662268.203      23584893.207      -8344369.801
10 0 60584  46560.000000  0       4627909.540      23446688.979      -8742947.862
10 0 60584  46680.000000  0       4589824.304      23302747.510      -9138480.203
10 0 60584  46800.000000  0       4547923.333      23153173.817      -9530828.997
10 0 60584  46920.000000  0       4502120.370      22998076.004      -9919857.530
10 0 60584  47040.000000  0       4452332.143      22837565.181     -10305430.254
10 0 60584  47160.000000  0       4398478.435      22671755.380     -10687412.827
10 0 60584  47280.000000  0       4340482.160      22500763.468     -11065672.169
10 0 60584  47400.000000  0       4278269.429      22324709.061     -11440076.504
10 0 60584  47520.000000  0       4211769.621      22143714.437     -11810495.412
10 0 60584  47640.000000  0       4140915.445      21957904.437     -12176799.867
10 0 60584  47760.000000  0       4065643.004      21767406.381     -12538862.293
10 0 60584  47880.000000  0       3985891.851      21572349.965     -12896556.601
10 0 60584  48000.000000  0       3901605.053      21372867.170     -13249758.238
10 0 60584  48120.000000  0       3812729.238      21169092.159     -13598344.232
10 0 60584  48240.000000  0       3719214.650      20961161.182     -13942193.230
10 0 60584  48360.000000  0       3621015.197      20749212.469     -14281185.549
10 0 60584  48480.000000  0       3518088.500      20533386.132     -14615203.211
10 0 60584  48600.000000  0       3410395.931      20313824.058     -14944129.989
10 0 60584  48720.000000  0       3297902.655      20090669.805     -15267851.449
10 0 60584  48840.000000  0       3180577.670      19864068.496     -15586254.985
10 0 60584  48960.000000  0       3058393.839      19634166.709     -15899229.865
10 0 60584  49080.000000  0       2931327.921      19401112.371     -16206667.265
10 0 60584  49200.000000  0       2799360.603      19165054.648     -16508460.313
10 0 60584  49320.000000  0       2662476.520      18926143.834     -16804504.120
10 0 60584  49440.000000  0       2520664.282      18684531.240     -17094695.821
10 0 60584  49560.000000  0       2373916.490      18440369.084     -17378934.612
10 0 60584  49680.000000  0       2222229.757      18193810.377     -17657121.781
10 0 60584  49800.000000  0       2065604.715      17945008.812     -17929160.749
10 0 60584  49920.000000  0       1904046.031      17694118.647     -18194957.095
10 0 60584  50040.000000  0       1737562.410      17441294.599     -18454418.600
10 0 60584  50160.000000  0       1566166.601      17186691.722     -18707455.268
10 0 60584  50280.000000  0       1389875.397      16930465.301     -18953979.367
10 0 60584  50400.000000  0       1208709.633      16672770.731     -19193905.452
10 0 60584  50520.000000  0       1022694.182      16413763.411     -19427150.400
10 0 60584  50640.000000  0        831857.943      16153598.624     -19653633.436
10 0 60584  50760.000000  0        636233.834      15892431.426     -19873276.162
10 0 60584  50880.000000  0        435858.774      15630416.534     -20086002.584
10 0 60584  51000.000000  0        230773.667      15367708.212     -20291739.138
10 0 60584  51120.000000  0         21023.381      15104460.161     -20490414.715
10 0 60584  51240.000000  0       -193343.278      14840825.402     -20681960.687
10 0 60584  51360.000000  0       -412273.589      14576956.173     -20866310.928
10 0 60584  51480.000000  0       -635710.947      14313003.813     -21043401.839
10 0 60584  51600.000000  0       -863594.898      14049118.653     -21213172.368
10 0 60584  51720.000000  0      -1095861.172      13785449.910     -21375564.032
10 0 60584  51840.000000  0      -1332441.723      13522145.578     -21530520.936
10 0 60584  51960.000000  0      -1573264.771      13259352.323     -21677989.792
10 0 60584  52080.000000  0      -1818254.845      12997215.374     -21817919.936
10 0 60584  52200.000000  0      -2067332.831      12735878.422     -21950263.349
10 0 60584  52320.000000  0      -2320416.021      12475483.519     -22074974.667
10 0 60584  52440.000000  0      -2577418.169      12216170.971     -22192011.199
10 0 60584  52560.000000  0      -2838249.543      11958079.242     -22301332.944
10 0 60584  52680.000000  0      -3102816.982      11701344.856     -22402902.597
10 0 60584  52800.000000  0      -3371023.964      11446102.298     -22496685.570
10 0 60584  52920.000000  0      -3642770.661      11192483.919     -22582649.994
10 0 60584  53040.000000  0      -3917954.008      10940619.844     -22660766.737
10 0 60584  53160.000000  0      -4196467.774      10690637.879     -22731009.408
10 0 60584  53280.000000  0      -4478202.630      10442663.424     -22793354.367
10 0 60584  53400.000000  0      -4763046.222      10196819.380     -22847780.734
10 0 60584  53520.000000  0      -5050883.246       9953226.069     -22894270.391
10 0 60584  53640.000000  0      -5341595.530       9712001.145     -22932807.991
10 0 60584  53760.000000  0      -5635062.109       9473259.517     -22963380.962
10 0 60584  53880.000000  0      -5931159.309       9237113.267     -22985979.507
10 0 60584  54000.000000  0      -6229760.831       9003671.574     -23000596.610
10 0 60584  54120.000000  0      -6530737.838       8773040.637     -23007228.036
10 0 60584  54240.000000  0      -6833959.042       8545323.606     -23005872.330
10 0 60584  54360.000000  0      -7139290.794       8320620.510     -22996530.819
10 0 60584  54480.000000  0      -7446597.177       8099028.189     -22979207.607
10 0 60584  54600.000000  0      -7755740.099       7880640.228     -22953909.575
10 0 60584  54720.000000  0      -8066579.387       7665546.901     -22920646.377
10 0 60584  54840.000000  0      -8378972.885       7453835.100     -22879430.436
10 0 60584  54960.000000  0      -8692776.552       7245588.289     -22830276.934
10 0 60584  55080.000000  0      -9007844.563       7040886.442     -22773203.812
10 0 60584  55200.000000  0      -9324029.409       6839805.994     -22708231.758
10 0 60584  55320.000000  0      -9641181.997       6642419.791     -22635384.201
10 0 60584  55440.000000  0      -9959151.761       6448797.045     -22554687.299
10 0 60584  55560.000000  0     -10277786.757       6259003.291     -22466169.933
10 0 60584  55680.000000  0     -10596933.779       6073100.343     -22369863.690
10 0 60584  55800.000000  0     -10916438.456       5891146.260     -22265802.855
10 0 60584  55920.000000  0     -11236145.369       5713195.311     -22154024.396
10 0 60584  56040.000000  0     -11555898.153       5539297.940     -22034567.953
10 0 60584  56160.000000  0     -11875539.610       5369500.742     -21907475.816
10 0 60584  56280.000000  0     -12194911.816       5203846.431     -21772792.918
10 0 60584  56400.000000  0     -12513856.235       5042373.825     -21630566.811
10 0 60584  56520.000000  0     -12832213.829       4885117.817     -21480847.653
10 0 60584  56640.000000  0     -13149825.166       4732109.367     -21323688.184
10 0 60584  56760.000000  0     -13466530.539       4583375.482     -21159143.714
10 0 60584  56880.000000  0     -13782170.071       4438939.209     -20987272.097
10 0 60584  57000.000000  0     -14096583.832       4298819.624     -20808133.710
10 0 60584  57120.000000  0     -14409611.947       4163031.829     -20621791.434
10 0 60584  57240.000000  0     -14721094.715       4031586.952     -20428310.628
10 0 60584  57360.000000  0     -15030872.713       3904492.146     -20227759.108
10 0 60584  57480.000000  0     -15338786.916       3781750.595     -20020207.120
99